Location: Adrasan
(36.3319°N, 30.4314°E)
Time: 06:47:44
(UTC+00:00)

Meteor 1-25 Rocket - Pass Details

Date: 09 December 2023
Orbit: 838 x 889 km, 81.2° (Epoch: 29 February)

Event Time Altitude Azimuth Distance (km) Brightness Sun altitude
Rises 15:23:16 0° 352° (N) 3,425 7.2 -8.1°
Reaches altitude 10° 15:25:42 10° 353° (N) 2,479 6.5 -8.6°
Maximum altitude 15:31:20 83° 81° (E) 852 4.2 -9.7°
Drops below altitude 10° 15:36:52 10° 170° (S) 2,444 6.7 -10.7°
Sets 15:39:16 0° 171° (S) 3,373 7.5 -11.1°
